Location: Charlottesville
(38.0290°N, 78.4770°W)
Time: 19:04:06
(UTC-04:00)

Envisat - Pass Details

Date: 11 October 2017
Orbit: 764 x 766 km, 98.2° (Epoch: 21 October)

Event Time Altitude Azimuth Distance (km) Brightness Sun altitude
Exits shadow 22:10:56 17° 298° (WNW) 1,860 5.5 -41.0°
Drops below altitude 10° 22:12:42 10° 316° (NW) 2,307 6.1 -41.3°
Sets 22:15:32 0° 332° (NNW) 3,237 6.9 -41.8°
